Tracking 33188 objects as of 10-Feb-2026
HD Live streaming from Space Station
objects crossing your sky now

STARLINK-30473

Track STARLINK-30473 now!
10-day predictions
STARLINK-30473 is classified as:


NORAD ID: 57893
Int'l Code: 2023-146C
Perigee: 564.7 km
Apogee: 567.8 km
Inclination: 43.0 °
Period: 95.8 minutes
Semi major axis: 6937 km
RCS: Unknown
Launch date: September 20, 2023
Source: United States (US)
Launch site: AIR FORCE EASTERN TEST RANGE (AFETR)
Your satellite tracking list
Your tracking list is empty




NASA's NSSDC Master Catalog

Two Line Element Set (TLE):
1 57893U 23146C   26041.21042976 -.00000390  00000-0 -13761-4 0  9998
2 57893  43.0035 102.5201 0002212 291.4214  68.6392 15.02530499132930
Source of the keplerian elements: AFSPC